KF5VOI Weather Reports


time (UTC)temp
F
wind
direction
speed
knots
gust
knots
rain 1hr
in
rain 24hr
in
rain mn
in
humidity
%
barometer
mb
20260504205637 80 124 2.6 7.0 0.00 0.00 0.00 45 1017.1
20260504202637 83 112 2.6 8.7 0.00 0.00 0.00 40 1017.7
20260504195634 84 225 0.0 0.9 0.00 0.00 0.00 40 1018.2
20260504192635 83 115 2.6 10.4 0.00 0.00 0.00 42 1018.3
20260504185634 80 141 1.7 6.1 0.00 0.00 0.00 45 1018.7
20260504182634 83 150 0.9 8.7 0.00 0.00 0.00 43 1019.0
20260504045634 61 0 0.0 0.0 0.00 0.00 0.00 81 1021.1
20260504042636 62 0 0.0 0.0 0.00 0.00 0.00 81 1021.3
20260504035634 63 0 0.0 0.0 0.00 0.00 0.00 83 1020.9
20260504032635 63 0 0.0 0.0 0.00 0.00 0.00 80 1021.1
20260504025635 64 0 0.0 0.0 0.00 0.00 0.00 76 1020.9
20260504022635 65 0 0.0 0.0 0.00 0.00 0.00 70 1020.6
20260504015635 67 0 0.0 0.0 0.00 0.00 0.00 67 1020.3
20260504012635 67 0 0.0 0.0 0.00 0.00 0.00 57 1020.0
20260504005634 71 0 0.0 0.0 0.00 0.00 0.00 51 1019.9
20260504002635 74 0 0.0 0.0 0.00 0.00 0.00 46 1019.7
20260503235635 80 0 0.0 0.0 0.00 0.00 0.00 41 1019.7
20260503232637 81 0 0.0 0.0 0.00 0.00 0.00 40 1020.0
20260503225634 82 0 0.0 0.0 0.00 0.00 0.00 39 1020.1
20260503222634 83 0 0.0 0.0 0.00 0.00 0.00 38 1020.2
20260503215634 81 0 0.0 0.0 0.00 0.00 0.00 38 1020.6
20260503212635 81 0 0.0 0.0 0.00 0.00 0.00 37 1021.0